I2HLY-3 Weather Reports


Display with metric or nautical units.
time (UTC)temp
F
wind
direction
speed
MPH
gust
MPH
rain 1hr
in
rain 24hr
in
rain mn
in
humidity
%
barometer
mb
20260902210230 69 289 0.0 0.0 0.00 0.00 0.00 86 1015.9
20260902204726 70 289 1.0 4.0 0.00 0.00 0.00 84 1015.8
20260902203234 70 295 2.0 3.0 0.00 0.00 0.00 84 1015.8
20260902201731 71 290 1.0 2.0 0.00 0.00 0.00 81 1015.6
20260902200229 72 290 0.0 1.0 0.00 0.00 0.00 80 1015.6
20260902194721 73 290 0.0 0.0 0.00 0.00 0.00 78 1015.6
20260902193234 74 290 1.0 2.0 0.00 0.00 0.00 76 1015.5
20260902191722 74 290 0.0 1.0 0.00 0.00 0.00 74 1015.2
20260902190228 76 290 1.0 1.0 0.00 0.00 0.00 71 1015.2
20260902184721 77 290 0.0 1.0 0.00 0.00 0.00 70 1015.0
20260902183222 79 290 1.0 2.0 0.00 0.00 0.00 66 1014.9
20260902181733 80 289 0.0 2.0 0.00 0.00 0.00 60 1014.7
20260902180225 82 290 0.0 1.0 0.00 0.00 0.00 59 1014.7
20260902174737 84 290 1.0 2.0 0.00 0.00 0.00 53 1014.6
20260902173230 85 287 1.0 4.0 0.00 0.00 0.00 51 1014.5
20260902171731 85 288 2.0 4.0 0.00 0.00 0.00 50 1014.4
20260902170238 86 299 2.0 3.0 0.00 0.00 0.00 50 1014.5
20260902164739 85 215 0.0 4.0 0.00 0.00 0.00 52 1014.4
20260902163223 87 215 2.0 4.0 0.00 0.00 0.00 49 1014.5
20260902161737 87 229 2.0 5.0 0.00 0.00 0.00 51 1014.5
20260902160223 87 252 2.0 8.0 0.00 0.00 0.00 49 1014.5
20260902154726 87 160 3.0 5.0 0.00 0.00 0.00 51 1014.6
20260902153220 87 190 2.0 6.0 0.00 0.00 0.00 54 1014.8
20260902151726 87 221 3.0 5.0 0.00 0.00 0.00 48 1014.8
20260902150229 87 171 3.0 6.0 0.00 0.00 0.00 48 1014.9
20260902144729 87 164 3.0 9.0 0.00 0.00 0.00 51 1015.1
20260902143231 87 219 4.0 7.0 0.00 0.00 0.00 51 1015.2
20260902141729 86 184 5.0 9.0 0.00 0.00 0.00 52 1015.2
20260902140225 86 90 2.0 8.0 0.00 0.00 0.00 50 1015.4
20260902134731 86 209 4.0 5.0 0.00 0.00 0.00 52 1015.5
20260902133231 86 316 2.0 7.0 0.00 0.00 0.00 52 1015.7
20260902131738 86 184 1.0 8.0 0.00 0.00 0.00 51 1015.9
20260902124737 86 167 1.0 6.0 0.00 0.00 0.00 57 1016.2
20260902123230 86 105 4.0 7.0 0.00 0.00 0.00 56 1016.4
20260902121730 85 156 1.0 8.0 0.00 0.00 0.00 55 1016.6
20260902120233 86 174 1.0 8.0 0.00 0.00 0.00 56 1016.7
20260902113224 86 228 3.0 5.0 0.00 0.00 0.00 57 1017.0
20260902111726 84 147 4.0 7.0 0.00 0.00 0.00 59 1017.2
20260902110232 86 87 3.0 7.0 0.00 0.00 0.00 57 1017.2
20260902104721 86 189 1.0 5.0 0.00 0.00 0.00 55 1017.4
20260902103221 83 161 4.0 7.0 0.00 0.00 0.00 60 1017.5
20260902101733 83 32 2.0 5.0 0.00 0.00 0.00 60 1017.7
20260902100229 83 156 2.0 3.0 0.00 0.00 0.00 59 1017.9
20260902094736 83 117 1.0 3.0 0.00 0.00 0.00 60 1017.9
20260902093221 83 109 2.0 8.0 0.00 0.00 0.00 59 1017.9
20260902091728 82 178 3.0 5.0 0.00 0.00 0.00 63 1018.0
20260902084737 81 57 2.0 7.0 0.00 0.00 0.00 60 1018.0
20260902083227 81 138 2.0 6.0 0.00 0.00 0.00 60 1018.1
20260902081721 80 58 1.0 5.0 0.00 0.00 0.00 63 1018.0
20260902080235 79 107 3.0 7.0 0.00 0.00 0.00 65 1018.0
20260902073230 79 82 3.0 5.0 0.00 0.00 0.00 64 1017.8
20260902071728 79 88 2.0 6.0 0.00 0.00 0.00 68 1017.7
20260902070228 78 112 3.0 7.0 0.00 0.00 0.00 69 1017.5
20260902064732 78 57 1.0 3.0 0.00 0.00 0.00 74 1017.5
20260902063223 75 32 2.0 5.0 0.00 0.00 0.00 81 1017.5
20260902061736 71 88 0.0 0.0 0.00 0.00 0.00 93 1017.5
20260902060232 69 82 0.0 0.0 0.00 0.00 0.00 94 1017.4
20260902054732 67 82 0.0 0.0 0.00 0.00 0.00 94 1017.4
20260902053225 66 82 0.0 0.0 0.00 0.00 0.00 94 1017.3
20260902051723 65 82 0.0 0.0 0.00 0.00 0.00 94 1017.2
20260902050232 64 82 0.0 0.0 0.00 0.00 0.00 93 1017.0
20260902044727 65 82 0.0 0.0 0.00 0.00 0.00 93 1017.0
20260902043219 65 82 0.0 0.0 0.00 0.00 0.00 93 1016.8
20260902041728 65 82 0.0 0.0 0.00 0.00 0.00 93 1016.8
20260902040227 65 82 0.0 0.0 0.00 0.00 0.00 93 1016.7
20260902034736 65 82 0.0 1.0 0.00 0.00 0.00 93 1016.8
20260902033219 65 82 0.0 1.0 0.00 0.00 0.00 93 1016.7
20260902031730 66 82 0.0 0.0 0.00 0.00 0.00 93 1016.7
20260902030223 66 82 0.0 0.0 0.00 0.00 0.00 93 1016.7
20260902024730 66 82 0.0 1.0 0.00 0.00 0.00 93 1016.8
20260902023236 66 82 0.0 1.0 0.00 0.00 0.00 92 1016.8
20260902021735 67 82 0.0 0.0 0.00 0.00 0.00 93 1016.6
20260902020229 67 82 0.0 0.0 0.00 0.00 0.00 92 1016.6
20260902014727 67 82 0.0 1.0 0.00 0.00 0.00 92 1016.6
20260902013234 67 82 0.0 1.0 0.00 0.00 0.00 92 1016.7
20260902011723 67 82 0.0 0.0 0.00 0.00 0.00 92 1016.7
20260902010236 67 82 0.0 0.0 0.00 0.00 0.00 92 1016.7
20260902004732 67 82 0.0 0.0 0.00 0.00 0.00 92 1016.7
20260902003232 67 81 0.0 0.0 0.00 0.00 0.00 91 1016.7
20260902001721 67 82 0.0 0.0 0.00 0.00 0.00 91 1016.7
20260902000219 67 82 0.0 0.0 0.00 0.00 0.00 91 1016.7
20260901234735 68 81 0.0 0.0 0.00 0.00 0.00 90 1016.7
20260901233229 68 82 0.0 0.0 0.00 0.00 0.00 90 1016.7
20260901231722 69 82 0.0 0.0 0.00 0.00 0.00 90 1016.8
20260901230228 69 82 0.0 0.0 0.00 0.00 0.00 89 1016.8
20260901224725 69 82 0.0 0.0 0.00 0.00 0.00 89 1016.8
20260901223220 69 82 0.0 0.0 0.00 0.00 0.00 89 1016.7
20260901221718 69 82 0.0 0.0 0.00 0.00 0.00 89 1016.7
20260901220234 69 82 0.0 0.0 0.00 0.00 0.00 89 1016.7
20260901214731 69 82 0.0 0.0 0.00 0.00 0.00 89 1016.7
20260901213220 69 82 0.0 0.0 0.00 0.00 0.00 88 1016.7
20260901211729 70 82 1.0 2.0 0.00 0.00 0.00 87 1016.6